Meteo pe oră la Iaşi

Astăzi, 17 Aprilie, Sâmbătă

Timp Temperatura Precipitaţii Vânt Presiune Umiditate
00:00 +5°C° 0 mm 0 m/s 754 mmHg 84%
01:00 +5°C° 0 mm 0 m/s 755 mmHg 84%
02:00 +4°C° 0 mm 0 m/s 755 mmHg 84%
03:00 +4°C° 0 mm 0 m/s 755 mmHg 84%
04:00 +4°C° 0 mm 0 m/s 755 mmHg 83%
05:00 +3°C° 0 mm 0 m/s 755 mmHg 83%
06:00 +5°C° 0 mm 0 m/s 755 mmHg 77%
07:00 +6°C° 0 mm 0 m/s 756 mmHg 72%
08:00 +7°C° 0 mm 0 m/s 756 mmHg 66%
09:00 +9°C° 0 mm 0 m/s 756 mmHg 61%
10:00 +10°C° 0 mm 0 m/s 756 mmHg 55%
11:00 +12°C° 0 mm 0 m/s 755 mmHg 49%
12:00 +13°C° 0 mm 1 m/s 755 mmHg 47%
13:00 +14°C° 0 mm 1 m/s 755 mmHg 44%
14:00 +15°C° 0 mm 1 m/s 755 mmHg 41%
15:00 +15°C° 0 mm 1 m/s 754 mmHg 42%
16:00 +15°C° 0 mm 2 m/s 754 mmHg 42%
17:00 +15°C° 0 mm 2 m/s 754 mmHg 42%
18:00 +13°C° 0 mm 2 m/s 754 mmHg 49%
19:00 +12°C° 0 mm 2 m/s 754 mmHg 56%
20:00 +10°C° 0 mm 3 m/s 755 mmHg 63%
21:00 +9°C° 0 mm 2 m/s 755 mmHg 66%
22:00 +8°C° 0 mm 2 m/s 755 mmHg 69%
23:00 +8°C° 0 mm 2 m/s 755 mmHg 73%

Mâine, 18 Aprilie, Duminică

Timp Temperatura Precipitaţii Vânt Presiune Umiditate
00:00 +7°C° 0 mm 2 m/s 755 mmHg 75%
01:00 +7°C° 0 mm 2 m/s 755 mmHg 77%
02:00 +7°C° 0 mm 1 m/s 755 mmHg 79%
03:00 +7°C° 0 mm 1 m/s 754 mmHg 79%
04:00 +7°C° 0 mm 1 m/s 754 mmHg 80%
05:00 +6°C° 0 mm 1 m/s 754 mmHg 80%
06:00 +8°C° 0 mm 1 m/s 754 mmHg 75%
07:00 +8°C° 0 mm 0 m/s 754 mmHg 71%
08:00 +9°C° 0 mm 0 m/s 754 mmHg 66%
09:00 +11°C° 0 mm 1 m/s 754 mmHg 60%
10:00 +12°C° 0 mm 1 m/s 754 mmHg 54%
11:00 +14°C° 0 mm 2 m/s 754 mmHg 49%
12:00 +14°C° 0 mm 2 m/s 753 mmHg 46%
13:00 +15°C° 0 mm 2 m/s 753 mmHg 43%
14:00 +16°C° 0 mm 3 m/s 753 mmHg 40%
15:00 +15°C° 0.1 mm 2 m/s 753 mmHg 47%
16:00 +13°C° 0.1 mm 2 m/s 753 mmHg 54%
17:00 +12°C° 0.1 mm 2 m/s 753 mmHg 61%
18:00 +12°C° 0 mm 1 m/s 753 mmHg 65%
19:00 +11°C° 0 mm 1 m/s 754 mmHg 69%
20:00 +10°C° 0 mm 1 m/s 754 mmHg 73%
21:00 +10°C° 0 mm 1 m/s 754 mmHg 75%
22:00 +10°C° 0 mm 1 m/s 754 mmHg 76%
23:00 +10°C° 0 mm 1 m/s 754 mmHg 77%

Poimâine, 19 Aprilie, Luni

Timp Temperatura Precipitaţii Vânt Presiune Umiditate
00:00 +10°C° 0 mm 1 m/s 753 mmHg 79%
01:00 +9°C° 0 mm 0 m/s 753 mmHg 80%
02:00 +8°C° 0 mm 0 m/s 753 mmHg 81%
03:00 +9°C° 0 mm 1 m/s 753 mmHg 81%
04:00 +9°C° 0 mm 1 m/s 753 mmHg 82%
05:00 +9°C° 0 mm 1 m/s 753 mmHg 82%
06:00 +9°C° 0 mm 1 m/s 753 mmHg 82%
07:00 +9°C° 0 mm 1 m/s 753 mmHg 81%
08:00 +10°C° 0 mm 1 m/s 753 mmHg 81%
09:00 +10°C° 0 mm 1 m/s 752 mmHg 80%
10:00 +10°C° 0 mm 1 m/s 752 mmHg 79%
11:00 +10°C° 0 mm 1 m/s 752 mmHg 78%
12:00 +10°C° 0 mm 1 m/s 752 mmHg 77%
13:00 +11°C° 0 mm 1 m/s 752 mmHg 76%
14:00 +10°C° 0 mm 2 m/s 751 mmHg 75%
15:00 +10°C° 0 mm 2 m/s 751 mmHg 75%
16:00 +10°C° 0 mm 2 m/s 751 mmHg 75%
17:00 +10°C° 0 mm 3 m/s 750 mmHg 75%
18:00 +10°C° 0 mm 3 m/s 750 mmHg 79%
19:00 +9°C° 0 mm 3 m/s 750 mmHg 82%
20:00 +9°C° 0 mm 3 m/s 749 mmHg 85%
21:00 +9°C° 0 mm 3 m/s 749 mmHg 87%
22:00 +9°C° 0 mm 3 m/s 748 mmHg 88%
23:00 +8°C° 0 mm 4 m/s 747 mmHg 89%

20 Aprilie, Marţi

Timp Temperatura Precipitaţii Vânt Presiune Umiditate
00:00 +7°C° 0.6 mm 4 m/s 747 mmHg 90%
01:00 +7°C° 0.6 mm 4 m/s 747 mmHg 90%
02:00 +7°C° 0.6 mm 4 m/s 746 mmHg 91%
03:00 +7°C° 0.7 mm 5 m/s 746 mmHg 91%
04:00 +7°C° 0.7 mm 5 m/s 745 mmHg 91%
05:00 +5°C° 0.7 mm 6 m/s 745 mmHg 91%
06:00 +5°C° 0.8 mm 6 m/s 745 mmHg 89%
07:00 +5°C° 0.8 mm 7 m/s 745 mmHg 87%
08:00 +5°C° 0.8 mm 7 m/s 745 mmHg 85%
09:00 +6°C° 0.2 mm 7 m/s 745 mmHg 78%
10:00 +8°C° 0.2 mm 7 m/s 745 mmHg 71%
11:00 +9°C° 0.2 mm 8 m/s 745 mmHg 64%
12:00 +10°C° 0 mm 8 m/s 745 mmHg 62%
13:00 +10°C° 0 mm 7 m/s 746 mmHg 59%
14:00 +11°C° 0 mm 7 m/s 746 mmHg 57%
15:00 +11°C° 0 mm 7 m/s 746 mmHg 59%
16:00 +11°C° 0 mm 6 m/s 746 mmHg 61%
17:00 +10°C° 0 mm 6 m/s 746 mmHg 63%
18:00 +10°C° 0 mm 5 m/s 747 mmHg 65%
19:00 +10°C° 0 mm 4 m/s 747 mmHg 67%
20:00 +9°C° 0 mm 3 m/s 748 mmHg 70%
21:00 +9°C° 0 mm 3 m/s 748 mmHg 72%
22:00 +8°C° 0 mm 3 m/s 749 mmHg 74%
23:00 +8°C° 0 mm 3 m/s 749 mmHg 77%

21 Aprilie, Miercuri

Timp Temperatura Precipitaţii Vânt Presiune Umiditate
00:00 +8°C° 0 mm 3 m/s 749 mmHg 78%
01:00 +8°C° 0 mm 3 m/s 750 mmHg 79%
02:00 +7°C° 0 mm 2 m/s 750 mmHg 80%
03:00 +7°C° 0 mm 2 m/s 750 mmHg 80%
04:00 +8°C° 0 mm 1 m/s 751 mmHg 81%
05:00 +8°C° 0 mm 1 m/s 751 mmHg 81%
06:00 +9°C° 0.2 mm 1 m/s 751 mmHg 80%
07:00 +9°C° 0.2 mm 1 m/s 752 mmHg 80%
08:00 +10°C° 0.2 mm 1 m/s 752 mmHg 79%
09:00 +9°C° 0.1 mm 2 m/s 753 mmHg 75%
10:00 +10°C° 0.1 mm 2 m/s 753 mmHg 72%
11:00 +12°C° 0.1 mm 2 m/s 753 mmHg 68%
12:00 +13°C° 0 mm 2 m/s 753 mmHg 63%
13:00 +14°C° 0 mm 2 m/s 753 mmHg 59%
14:00 +15°C° 0 mm 2 m/s 753 mmHg 54%
15:00 +15°C° 0 mm 2 m/s 753 mmHg 54%
16:00 +15°C° 0 mm 2 m/s 753 mmHg 53%
17:00 +15°C° 0 mm 2 m/s 753 mmHg 52%
18:00 +14°C° 0 mm 2 m/s 754 mmHg 58%
19:00 +12°C° 0 mm 2 m/s 754 mmHg 64%
20:00 +11°C° 0 mm 1 m/s 754 mmHg 70%
21:00 +11°C° 0.1 mm 1 m/s 754 mmHg 72%
22:00 +10°C° 0.1 mm 1 m/s 755 mmHg 75%
23:00 +10°C° 0.1 mm 1 m/s 755 mmHg 78%

22 Aprilie, Joi

Timp Temperatura Precipitaţii Vânt Presiune Umiditate
00:00 +9°C° 0 mm 1 m/s 755 mmHg 79%
01:00 +9°C° 0 mm 1 m/s 755 mmHg 81%
02:00 +8°C° 0 mm 1 m/s 755 mmHg 83%
03:00 +8°C° 0 mm 1 m/s 756 mmHg 84%
04:00 +7°C° 0 mm 0 m/s 756 mmHg 84%
05:00 +7°C° 0 mm 0 m/s 756 mmHg 84%
06:00 +8°C° 0 mm 0 m/s 756 mmHg 79%
07:00 +11°C° 0 mm 1 m/s 756 mmHg 73%
08:00 +12°C° 0 mm 1 m/s 757 mmHg 68%
09:00 +14°C° 0 mm 1 m/s 756 mmHg 63%
10:00 +15°C° 0 mm 1 m/s 756 mmHg 57%
11:00 +17°C° 0 mm 2 m/s 756 mmHg 52%
12:00 +17°C° 0 mm 2 m/s 756 mmHg 48%
13:00 +18°C° 0 mm 3 m/s 755 mmHg 45%
14:00 +19°C° 0 mm 3 m/s 755 mmHg 41%
15:00 +19°C° 0 mm 3 m/s 755 mmHg 43%
16:00 +19°C° 0 mm 3 m/s 755 mmHg 45%
17:00 +18°C° 0 mm 3 m/s 754 mmHg 48%
18:00 +16°C° 0.9 mm 3 m/s 755 mmHg 59%
19:00 +14°C° 0.9 mm 2 m/s 755 mmHg 70%
20:00 +12°C° 0.9 mm 2 m/s 755 mmHg 81%
21:00 +12°C° 0.1 mm 2 m/s 755 mmHg 82%
22:00 +10°C° 0.1 mm 2 m/s 755 mmHg 83%
23:00 +11°C° 0.1 mm 1 m/s 754 mmHg 84%
Arată mai mult

Formular de consimțământ

Meteoprog și furnizorii noștri de servicii pot stoca și accesa date personale, precum cookies, identificatori de dispozitiv sau alte tehnologii similare pe dispozitivul dumneavoastră și procesa astfel de date pentru a personaliza conținutul și reclamele, dar și pentru a oferi caracteristici de social media și pentru a analiza traficul.

  • Stocarea și/sau accesarea informațiilor pe dispozitivul dumneavoastră

    Cookies, identificatori de dispozitiv sau alte informații pot fi stocate sau accesate pe dispozitiv în scopurile indicate mai sus.

  • Reclame și conținut personalizat, evaluarea reclamelor și a conținutului, informații despre audiențe și dezvoltarea produselor

    Reclamele și conținutul pot fi personalizate pe baza unui profil. Pot fi adăugate date suplimentare pentru a personaliza mai bine reclamele și conținutul. Performanța reclamelor și conținutului poate fi măsurată. Pot fi obținute informații despre utilizatorii care au văzut reclamele și conținutul. Aceste date pot fi utilizate pentru a dezvolta sau îmbunătăți experiența utilizatorilor, sistemele și software-ul.

Dând clic pe ‘Sunt de acord’, permiteți utilizarea cookie-urilor menționate, a identificatorilor de dispozitiv, balizelor web sau altor tehnologii similare. Setările pot fi modificate din browser-ul dispozitivului dumneavoastră.

În anumite scopuri, interesele legitime pot prima asupra consimțământului. Puteți citi mai multe informații în acest sens în Politica privind Confidențialitatea Datelor și Cookie.